When you browse on this site, cookies collect data to enhance your experience and personalize the content and advertising you see.
Visit our Privacy Policy to learn more. By continuing to use the site, you agree to this use of cookies and data.
  • In Spain
  • List of Countries
  • For 7 days
  • Water Temperature
  • Satellite Maps
  • Weather Map
  • Weather Widgets
  • user-avatar
    Login

    Hourly Weather Elbasan

    Today, 13 December, Thursday

    Time Temperature Precipitation Wind Pressure Humidity
    00:00 +3°C° 0 mm 2 mps 738 mmHg 41%
    01:00 +3°C° 0 mm 2 mps 737 mmHg 41%
    02:00 +3°C° 0 mm 2 mps 737 mmHg 41%
    03:00 +3°C° 0 mm 2 mps 737 mmHg 41%
    04:00 +3°C° 0 mm 2 mps 737 mmHg 41%
    05:00 +3°C° 0 mm 2 mps 737 mmHg 43%
    06:00 +3°C° 0 mm 2 mps 736 mmHg 45%
    07:00 +4°C° 0 mm 2 mps 736 mmHg 46%
    08:00 +4°C° 0.1 mm 2 mps 736 mmHg 49%
    09:00 +4°C° 0.1 mm 3 mps 736 mmHg 52%
    10:00 +4°C° 0.1 mm 3 mps 736 mmHg 54%
    11:00 +5°C° 0.1 mm 3 mps 735 mmHg 57%
    12:00 +5°C° 0.1 mm 3 mps 735 mmHg 59%
    13:00 +5°C° 0.1 mm 3 mps 735 mmHg 61%
    14:00 +5°C° 0.1 mm 3 mps 735 mmHg 65%
    15:00 +4°C° 0.1 mm 3 mps 735 mmHg 68%
    16:00 +4°C° 0.1 mm 3 mps 734 mmHg 72%
    17:00 +3°C° 0 mm 3 mps 734 mmHg 74%
    18:00 +3°C° 0 mm 3 mps 734 mmHg 76%
    19:00 +3°C° 0 mm 3 mps 734 mmHg 78%
    20:00 +3°C° 0.1 mm 3 mps 734 mmHg 79%
    21:00 +3°C° 0.1 mm 3 mps 734 mmHg 80%
    22:00 +3°C° 0.1 mm 3 mps 734 mmHg 81%
    23:00 +4°C° 0.4 mm 3 mps 734 mmHg 82%

    Tomorrow, 14 December, Friday

    Time Temperature Precipitation Wind Pressure Humidity
    00:00 +4°C° 0.4 mm 3 mps 734 mmHg 83%
    01:00 +4°C° 0.4 mm 3 mps 734 mmHg 84%
    02:00 +4°C° 0.4 mm 3 mps 734 mmHg 85%
    03:00 +5°C° 0.4 mm 3 mps 734 mmHg 86%
    04:00 +5°C° 0.4 mm 3 mps 734 mmHg 87%
    05:00 +5°C° 0.3 mm 3 mps 734 mmHg 87%
    06:00 +5°C° 0.3 mm 3 mps 734 mmHg 88%
    07:00 +7°C° 0.3 mm 3 mps 734 mmHg 88%
    08:00 +8°C° 0.3 mm 3 mps 734 mmHg 87%
    09:00 +9°C° 0.3 mm 3 mps 734 mmHg 85%
    10:00 +10°C° 0.3 mm 3 mps 734 mmHg 84%
    11:00 +10°C° 0.1 mm 3 mps 734 mmHg 82%
    12:00 +11°C° 0.1 mm 3 mps 733 mmHg 81%
    13:00 +12°C° 0.1 mm 3 mps 733 mmHg 79%
    14:00 +11°C° 0.1 mm 3 mps 733 mmHg 81%
    15:00 +10°C° 0.1 mm 3 mps 733 mmHg 84%
    16:00 +10°C° 0.1 mm 3 mps 733 mmHg 86%
    17:00 +9°C° 0 mm 3 mps 733 mmHg 86%
    18:00 +9°C° 0 mm 3 mps 733 mmHg 87%
    19:00 +8°C° 0 mm 3 mps 733 mmHg 87%
    20:00 +8°C° 0 mm 3 mps 733 mmHg 86%
    21:00 +8°C° 0 mm 3 mps 734 mmHg 86%
    22:00 +7°C° 0 mm 3 mps 734 mmHg 86%
    23:00 +7°C° 0 mm 3 mps 733 mmHg 85%

    Day after tomorrow, 15 December, Saturday

    Time Temperature Precipitation Wind Pressure Humidity
    00:00 +7°C° 0 mm 3 mps 733 mmHg 85%
    01:00 +7°C° 0 mm 3 mps 733 mmHg 85%
    02:00 +7°C° 0 mm 3 mps 733 mmHg 85%
    03:00 +7°C° 0 mm 3 mps 732 mmHg 84%
    04:00 +7°C° 0 mm 3 mps 732 mmHg 84%
    05:00 +7°C° 0 mm 3 mps 732 mmHg 84%
    06:00 +7°C° 0 mm 3 mps 732 mmHg 84%
    07:00 +8°C° 0 mm 3 mps 732 mmHg 84%
    08:00 +9°C° 0 mm 3 mps 732 mmHg 82%
    09:00 +10°C° 0 mm 3 mps 732 mmHg 81%
    10:00 +11°C° 0 mm 3 mps 733 mmHg 79%
    11:00 +11°C° 0.3 mm 3 mps 732 mmHg 78%
    12:00 +12°C° 0.3 mm 3 mps 732 mmHg 77%
    13:00 +12°C° 0.3 mm 3 mps 732 mmHg 77%
    14:00 +11°C° 0.7 mm 3 mps 732 mmHg 80%
    15:00 +11°C° 0.7 mm 3 mps 732 mmHg 84%
    16:00 +10°C° 0.7 mm 3 mps 732 mmHg 88%
    17:00 +10°C° 1.1 mm 3 mps 732 mmHg 88%
    18:00 +9°C° 1.1 mm 2 mps 732 mmHg 89%
    19:00 +9°C° 1.1 mm 2 mps 732 mmHg 90%
    20:00 +9°C° 1.4 mm 2 mps 732 mmHg 91%
    21:00 +9°C° 1.4 mm 2 mps 733 mmHg 93%
    22:00 +9°C° 1.4 mm 2 mps 733 mmHg 94%
    23:00 +9°C° 1.2 mm 2 mps 733 mmHg 95%

    16 December, Sunday

    Time Temperature Precipitation Wind Pressure Humidity
    00:00 +8°C° 1.2 mm 2 mps 733 mmHg 95%
    01:00 +8°C° 1.2 mm 2 mps 733 mmHg 96%
    02:00 +8°C° 0.3 mm 2 mps 733 mmHg 96%
    03:00 +8°C° 0.3 mm 2 mps 733 mmHg 96%
    04:00 +8°C° 0.3 mm 2 mps 733 mmHg 96%
    05:00 +8°C° 0.1 mm 2 mps 733 mmHg 95%
    06:00 +8°C° 0.1 mm 2 mps 733 mmHg 94%
    07:00 +7°C° 0.1 mm 2 mps 734 mmHg 93%
    08:00 +8°C° 0.1 mm 2 mps 734 mmHg 88%
    09:00 +8°C° 0.1 mm 2 mps 734 mmHg 83%
    10:00 +9°C° 0.1 mm 2 mps 735 mmHg 78%
    11:00 +9°C° 0 mm 3 mps 735 mmHg 74%
    12:00 +9°C° 0 mm 3 mps 735 mmHg 71%
    13:00 +9°C° 0 mm 3 mps 735 mmHg 68%
    14:00 +8°C° 0 mm 2 mps 735 mmHg 71%
    15:00 +8°C° 0 mm 2 mps 735 mmHg 74%
    16:00 +7°C° 0 mm 2 mps 736 mmHg 77%
    17:00 +7°C° 0 mm 1 mps 736 mmHg 79%
    18:00 +6°C° 0 mm 1 mps 737 mmHg 82%
    19:00 +6°C° 0 mm 1 mps 737 mmHg 84%
    20:00 +5°C° 0 mm 1 mps 737 mmHg 84%
    21:00 +5°C° 0 mm 1 mps 737 mmHg 83%
    22:00 +5°C° 0 mm 1 mps 737 mmHg 83%
    23:00 +5°C° 0 mm 1 mps 737 mmHg 82%

    17 December, Monday

    Time Temperature Precipitation Wind Pressure Humidity
    00:00 +5°C° 0 mm 1 mps 737 mmHg 80%
    01:00 +5°C° 0 mm 1 mps 737 mmHg 78%
    02:00 +6°C° 0 mm 1 mps 737 mmHg 76%
    03:00 +6°C° 0 mm 1 mps 737 mmHg 74%
    04:00 +6°C° 0 mm 1 mps 737 mmHg 71%
    05:00 +6°C° 0 mm 1 mps 737 mmHg 70%
    06:00 +6°C° 0 mm 1 mps 737 mmHg 69%
    07:00 +6°C° 0 mm 1 mps 737 mmHg 68%
    08:00 +8°C° 0 mm 1 mps 737 mmHg 63%
    09:00 +9°C° 0 mm 1 mps 737 mmHg 58%
    10:00 +10°C° 0 mm 1 mps 737 mmHg 53%
    11:00 +9°C° 0 mm 2 mps 736 mmHg 56%
    12:00 +9°C° 0 mm 2 mps 736 mmHg 59%
    13:00 +9°C° 0 mm 2 mps 736 mmHg 62%
    14:00 +8°C° 0 mm 2 mps 736 mmHg 66%
    15:00 +8°C° 0 mm 2 mps 736 mmHg 70%
    16:00 +7°C° 0 mm 2 mps 736 mmHg 74%
    17:00 +7°C° 0 mm 2 mps 736 mmHg 76%
    18:00 +7°C° 0 mm 2 mps 736 mmHg 77%
    19:00 +7°C° 0 mm 2 mps 736 mmHg 79%
    20:00 +7°C° 0.3 mm 2 mps 737 mmHg 80%
    21:00 +6°C° 0.3 mm 2 mps 737 mmHg 81%
    22:00 +6°C° 0.3 mm 2 mps 737 mmHg 82%
    23:00 +6°C° 0.3 mm 2 mps 737 mmHg 82%

    18 December, Tuesday

    Time Temperature Precipitation Wind Pressure Humidity
    00:00 +7°C° 0.3 mm 2 mps 737 mmHg 83%
    01:00 +7°C° 0.3 mm 2 mps 737 mmHg 84%
    02:00 +6°C° 0.1 mm 2 mps 737 mmHg 84%
    03:00 +6°C° 0.1 mm 2 mps 737 mmHg 84%
    04:00 +6°C° 0.1 mm 2 mps 736 mmHg 85%
    05:00 +6°C° 0 mm 2 mps 736 mmHg 84%
    06:00 +6°C° 0 mm 2 mps 736 mmHg 84%
    07:00 +6°C° 0 mm 2 mps 737 mmHg 83%
    08:00 +6°C° 0.1 mm 2 mps 737 mmHg 80%
    09:00 +7°C° 0.1 mm 2 mps 737 mmHg 78%
    10:00 +8°C° 0.1 mm 2 mps 737 mmHg 75%
    11:00 +8°C° 0.3 mm 2 mps 736 mmHg 75%
    12:00 +8°C° 0.3 mm 2 mps 736 mmHg 74%
    13:00 +8°C° 0.3 mm 2 mps 736 mmHg 74%
    14:00 +7°C° 0.2 mm 2 mps 736 mmHg 76%
    15:00 +7°C° 0.2 mm 2 mps 736 mmHg 78%
    16:00 +6°C° 0.2 mm 2 mps 736 mmHg 80%
    17:00 +6°C° 0.1 mm 2 mps 736 mmHg 81%
    18:00 +5°C° 0.1 mm 2 mps 736 mmHg 81%
    19:00 +4°C° 0.1 mm 2 mps 737 mmHg 82%
    20:00 +4°C° 0 mm 2 mps 737 mmHg 81%
    21:00 +3°C° 0 mm 2 mps 737 mmHg 81%
    22:00 +3°C° 0 mm 2 mps 737 mmHg 80%
    23:00 +3°C° 0 mm 2 mps 738 mmHg 79%
    Show more